This is the latest recevied weather packets stored in our database for station/object KG7FOQ-13. If no packets are shown the sender has not sent any weather packets the latest 1 day(s).
| Time | Temp. | Humidity | Pressure | Rain* | Wind** | Luminosity | Snow |
|---|---|---|---|---|---|---|---|
| 1778033348 | 16.11° C | 45% | 1007.4 hPa | 0 mm | - | - | - |
| 1778033048 | 17.22° C | 42% | 1007 hPa | 0 mm | - | - | - |
| 1778032747 | 17.22° C | 38% | 1006.5 hPa | 0 mm | - | - | - |
| 1778032447 | 20.56° C | 32% | 1006.8 hPa | 0 mm | - | - | - |
| 1778032146 | 20.56° C | 30% | 1006.1 hPa | 0 mm | - | - | - |
| 1778031245 | 20.56° C | 31% | 1006.1 hPa | 0 mm | - | - | - |
| 1778030944 | 20.56° C | 29% | 1006.2 hPa | 0 mm | - | - | - |
| 1778030644 | 20.56° C | 29% | 1006.5 hPa | 0 mm | - | - | - |
| 1778029742 | 20.56° C | 31% | 1006.7 hPa | 0 mm | - | - | - |
| 1778029442 | 20.56° C | 31% | 1006.6 hPa | 0 mm | - | - | - |
| 1778028840 | 20.56° C | 30% | 1006.7 hPa | 0 mm | - | - | - |
| 1778028238 | 20.56° C | 30% | 1006.8 hPa | 0 mm | - | - | - |
| 1778027938 | 20.56° C | 29% | 1006.8 hPa | 0 mm | - | - | - |
| 1778027037 | 20.56° C | 30% | 1007.1 hPa | 0 mm | - | - | - |
| 1778026736 | 20.56° C | 29% | 1007.1 hPa | 0 mm | - | - | - |
| 1778026135 | 20.56° C | 28% | 1007.3 hPa | 0 mm | - | - | - |
| 1778025533 | 20.56° C | 29% | 1007.4 hPa | 0 mm | - | - | - |
| 1778023127 | 20° C | 27% | 1007.7 hPa | 0 mm | - | - | - |
| 1778022526 | 20° C | 28% | 1007.8 hPa | 0 mm | - | - | - |
| 1778021923 | 20° C | 28% | 1007.8 hPa | 0 mm | - | - | - |
* Rain latest hour (hover to see other rain measurements)
** Current wind speed in m/s (hover to see current wind gust speed)